[[{"header":{"parameterUnit":"m.s-1","parameterCategory":1,"la1":30.2991,"la2":30.254,"lo1":-89.0895,"lo2":-89.0444,"dy":0.0017,"dx":0.0017,"nx":28,"ny":28,"refTime":"2023-11-21T09:00:00:Z","depth":0,"parameterNumber":2,"parameterNumberName":"U-component_of_WINDS"},"data":[0,0,0,0,0,0,0,0,0,0,0,0,0,0,0,0,0,0,0,0,0,0,0,0,0,0,0,0,0,0,0,0,0,0,0,0,0,0,0,0,0,0,0,0,0,0,0,0,0,0,0,0,0,0,0,0,0,0,3.1823,3.1823,0,3.1827,3.1827,3.1827,3.1782,3.178,3.1779,3.1778,3.1781,3.1783,3.1784,0,0,0,0,0,0,0,0,0,0,0,0,0,3.1776,3.1778,3.1823,3.1823,3.1823,3.1827,3.1827,3.1827,3.1782,3.178,3.1779,3.1777,3.1781,3.1782,3.1784,0,0,0,0,0,0,0,0,0,0,0,0,0,3.179,3.1778,3.1823,3.1801,3.1799,3.1827,3.1827,3.1827,3.1782,3.178,3.1778,3.1777,3.178,3.1782,3.1784,3.1833,0,0,3.179,3.1791,0,0,0,0,0,0,0,0,3.1789,3.1792,3.1804,3.1802,3.18,3.1802,3.1812,3.1829,3.1783,3.1788,3.1778,3.1776,3.179,3.1791,3.1795,3.1833,3.1833,3.179,3.1791,3.1792,3.1792,0,0,0,0,0,0,0,3.1788,3.1791,3.1824,3.1804,3.1802,3.1791,3.1791,3.1815,3.1799,3.1788,3.1784,3.1786,3.1788,3.1794,3.1795,3.1833,3.179,3.1792,3.1793,3.1793,3.1912,3.1914,0,0,0,0,0,0,3.1791,3.1791,3.1824,3.1824,3.179,3.1793,3.1793,3.1803,3.1799,3.1797,3.1787,3.1784,3.1791,3.1793,3.1795,3.1853,3.1792,3.1794,3.1795,3.191,3.1913,3.1915,0,0,0,0,0,0,3.179,3.1794,3.1824,3.1807,3.181,3.1796,3.1808,3.1804,3.181,3.1799,3.1796,3.1796,3.179,3.1792,3.1824,3.1852,3.1795,3.1796,3.1908,3.1911,3.1914,3.1968,0,0,0,0,0,0,3.1789,3.1794,3.1812,3.1807,3.1811,3.1853,3.1809,3.1806,3.1813,3.1808,3.1806,3.1803,3.1789,3.1822,3.1826,3.1854,3.1798,3.1905,3.1909,3.1913,3.1963,3.1972,3.198,0,0,0,0,0,3.1787,3.1826,3.1813,3.1817,3.1833,3.1854,3.1856,3.1839,3.1815,3.1834,3.1827,3.1803,3.1848,3.1825,3.183,3.1858,3.1904,3.1908,3.1913,3.1959,3.197,3.1979,0,0,0,0,0,0,3.1834,3.1825,3.181,3.1849,3.1853,3.1847,3.1869,3.1851,3.1861,3.1856,3.1833,3.1833,3.1869,3.1867,3.1841,3.1906,3.1872,3.1878,3.1906,3.1916,3.1924,3.1924,3.1799,0,0,0,0,0,3.1849,3.1867,3.1858,3.1894,3.1896,3.1883,3.1891,3.1878,3.188,3.1882,3.1877,3.1881,3.1895,3.1906,3.1919,3.1963,3.1962,3.1985,3.1993,3.2,3.2005,3.2029,3.204,3.193,3.193,3.193,0,0,3.1879,3.1877,3.189,3.1903,3.1904,3.1924,3.1884,3.1906,3.192,3.1885,3.1915,3.1912,3.1914,3.1953,3.1969,3.1952,3.2035,3.2006,3.2011,3.2013,3.2035,3.2046,3.2055,3.1933,3.1933,3.1932,0,0,3.1945,3.1945,3.1975,3.1978,3.198,3.1971,3.1979,3.1976,3.1973,3.2002,3.1977,3.1993,3.2019,3.2023,3.2028,3.2098,3.2077,3.2102,3.2145,3.2169,3.2178,3.2185,3.2211,3.222,3.2108,3.2108,3.2108,0,3.1983,3.2011,3.1993,3.2017,3.2024,3.1994,3.2024,3.2028,3.2034,3.204,3.2021,3.2054,3.2053,3.2093,3.211,3.2115,3.2123,3.2102,3.2178,3.2185,3.2192,3.2216,3.2226,3.2111,3.2111,3.211,3.211,0,3.2058,3.2078,3.2102,3.211,3.212,3.2147,3.2134,3.2146,3.2132,3.2125,3.2157,3.2155,3.2168,3.2177,3.2163,3.2215,3.2204,3.2182,3.2147,3.2206,3.2228,3.2237,3.2115,3.2114,3.2113,3.2113,0,0,3.2152,3.2151,3.216,3.2164,3.2166,3.2181,3.2208,3.2221,3.2232,3.2239,3.226,3.2284,3.2264,3.227,3.2257,3.2278,3.2334,3.2253,3.2253,3.2268,3.2392,3.2409,3.2419,3.2321,3.2322,3.2324,3.2392,0,3.2216,3.2261,3.2247,3.2292,3.2312,3.2284,3.2307,3.2311,3.2306,3.2322,3.2316,3.2333,3.2305,3.2309,3.2329,3.2323,3.2359,3.2318,3.2341,3.2342,3.2341,3.2431,3.2448,3.2512,3.24,3.2402,3.2403,0,3.2297,3.2308,3.2356,3.2356,3.2364,3.2385,3.2396,3.2412,3.2416,3.2411,3.2419,3.2401,3.2428,3.2394,3.243,3.2403,3.2411,3.241,3.2413,3.2414,3.2376,3.2435,3.2532,3.2542,3.2416,3.2415,3.2414,0,3.2362,3.2388,3.242,3.2425,3.2425,3.2441,3.2442,3.2445,3.2454,3.2465,3.2471,3.2484,3.2491,3.2502,3.2489,3.2465,3.2528,3.2492,3.2524,3.2525,3.2538,3.2537,3.2639,3.2544,3.2544,3.2544,3.2544,0,3.2435,3.2466,3.245,3.247,3.2503,3.2487,3.2521,3.2518,3.2521,3.2541,3.2518,3.2537,3.2518,3.2535,3.2525,3.2558,3.2561,3.2558,3.2555,3.256,3.256,3.2565,3.256,3.2546,3.2546,3.2545,3.2545,0,3.2512,3.2503,3.2536,3.2535,3.2536,3.2561,3.2559,3.2578,3.2572,3.2597,3.2602,3.2592,3.2612,3.26,3.2619,3.2613,3.2655,3.2646,3.2654,3.2651,3.2684,3.2681,3.2792,3.2806,3.2702,3.2703,3.2704,0,3.256,3.2583,3.2585,3.2596,3.2599,3.2618,3.2628,3.2613,3.2624,3.2632,3.265,3.2667,3.268,3.2713,3.2707,3.2722,3.2713,3.2751,3.2715,3.272,3.2714,3.2713,3.2716,3.2758,3.2759,3.276,3.2761,0,3.2645,3.264,3.2655,3.267,3.2683,3.2693,3.2702,3.2712,3.2697,3.2711,3.2731,3.2742,3.2762,3.278,3.2793,3.2794,3.2776,3.2773,3.2781,3.2786,3.279,3.2789,3.2673,3.277,3.2769,3.2769,3.2768,3.2768,3.2709,3.2729,3.2734,3.2752,3.2757,3.2766,3.2784,3.2781,3.2798,3.2813,3.2804,3.2827,3.2832,3.2848,3.2852,3.287,3.2855,3.2867,3.287,3.2873,3.2878,3.2788,3.2872,3.2872,3.2872,3.2872,3.2871,0,3.2794,3.2796,3.2813,3.2827,3.2842,3.2824,3.2833,3.2846,3.2867,3.2874,3.2888,3.2911,3.2929,3.2926,3.2942,3.2957,3.2949,3.2962,3.2961,3.2961,3.289,3.2881,3.2968,3.2968,3.2968,3.2968,3.2968,3.2968,3.284,3.2873,3.2868,3.2904,3.2906,3.2929,3.2936,3.2945,3.295,3.2977,3.2992,3.299,3.2993,3.301,3.3025,3.3024,3.3031,3.3047,3.3043,3.2976,3.2966,3.2957,3.2949,3.3049,3.3049,3.3112,3.3113,3.3113]},{"header":{"parameterUnit":"m.s-1","parameterCategory":1,"la1":30.2991,"la2":30.254,"lo1":-89.0895,"lo2":-89.0444,"dy":0.0017,"dx":0.0017,"nx":28,"ny":28,"refTime":"2023-11-21T09:00:00:Z","depth":0,"parameterNumber":3,"parameterNumberName":"V-component_of_WINDS"},"data":[0,0,0,0,0,0,0,0,0,0,0,0,0,0,0,0,0,0,0,0,0,0,0,0,0,0,0,0,0,0,0,0,0,0,0,0,0,0,0,0,0,0,0,0,0,0,0,0,0,0,0,0,0,0,0,0,0,0,-5.815,-5.8151,0,-5.8238,-5.8239,-5.824,-5.8207,-5.8205,-5.8203,-5.8202,-5.8288,-5.8292,-5.8296,0,0,0,0,0,0,0,0,0,0,0,0,0,-5.7951,-5.7954,-5.815,-5.8151,-5.8152,-5.8238,-5.8239,-5.824,-5.8208,-5.8205,-5.8203,-5.8201,-5.8286,-5.8291,-5.8296,0,0,0,0,0,0,0,0,0,0,0,0,0,-5.8038,-5.7956,-5.8149,-5.8146,-5.8147,-5.8238,-5.8239,-5.824,-5.8208,-5.8205,-5.8202,-5.82,-5.8285,-5.8291,-5.8297,-5.8395,0,0,-5.8316,-5.8319,0,0,0,0,0,0,0,0,-5.8033,-5.8045,-5.8146,-5.8147,-5.8147,-5.8209,-5.82,-5.8292,-5.8209,-5.8185,-5.8202,-5.8198,-5.8264,-5.8271,-5.8294,-5.8399,-5.8403,-5.8316,-5.832,-5.8323,-5.8325,0,0,0,0,0,0,0,-5.8027,-5.8041,-5.8184,-5.8147,-5.8148,-5.8139,-5.8149,-5.8218,-5.824,-5.8187,-5.8185,-5.8196,-5.8263,-5.8288,-5.8296,-5.8404,-5.8316,-5.8322,-5.8326,-5.8328,-5.8595,-5.8598,0,0,0,0,0,0,-5.8021,-5.8036,-5.8182,-5.8187,-5.8082,-5.8145,-5.8156,-5.8192,-5.8239,-5.8243,-5.8198,-5.8194,-5.8279,-5.8289,-5.8299,-5.8418,-5.8323,-5.8329,-5.8332,-5.8592,-5.8596,-5.8599,0,0,0,0,0,0,-5.8017,-5.8034,-5.8178,-5.8111,-5.8129,-5.8152,-5.8193,-5.8195,-5.822,-5.8248,-5.8251,-5.822,-5.8277,-5.829,-5.8372,-5.842,-5.8331,-5.8337,-5.8588,-5.8593,-5.8598,-5.8656,0,0,0,0,0,0,-5.8011,-5.8033,-5.8071,-5.8112,-5.8133,-5.8251,-5.8196,-5.8199,-5.8231,-5.8227,-5.8269,-5.8273,-5.8276,-5.8363,-5.8378,-5.8427,-5.8342,-5.8583,-5.859,-5.8596,-5.865,-5.8663,-5.8673,0,0,0,0,0,-5.8004,-5.8082,-5.8073,-5.8091,-5.8181,-5.8253,-5.8265,-5.8268,-5.8235,-5.8274,-5.8292,-5.8271,-5.8413,-5.8372,-5.8388,-5.844,-5.858,-5.8588,-5.8595,-5.8645,-5.866,-5.8673,0,0,0,0,0,0,-5.8044,-5.8088,-5.8078,-5.8172,-5.821,-5.8248,-5.8296,-5.8284,-5.833,-5.8324,-5.8324,-5.8334,-5.8419,-5.8437,-5.8391,-5.8538,-5.8492,-5.8503,-5.8523,-5.8538,-5.855,-5.8543,-5.8347,0,0,0,0,0,-5.8064,-5.8121,-5.8155,-5.8235,-5.8255,-5.8272,-5.8304,-5.8304,-5.8342,-5.8357,-5.8381,-5.8418,-5.8471,-5.8505,-5.8555,-5.8653,-5.8662,-5.8697,-5.8708,-5.8718,-5.8728,-5.8782,-5.8798,-5.8624,-5.8624,-5.8624,0,0,-5.8105,-5.8136,-5.8171,-5.8244,-5.8273,-5.8331,-5.8286,-5.8348,-5.8391,-5.8366,-5.8446,-5.8464,-5.8506,-5.8596,-5.8637,-5.8614,-5.8778,-5.8728,-5.8735,-5.874,-5.8791,-5.8808,-5.8822,-5.8629,-5.8628,-5.8628,0,0,-5.8211,-5.824,-5.831,-5.8341,-5.8386,-5.8398,-5.8415,-5.8456,-5.8468,-5.8548,-5.8531,-5.8582,-5.8672,-5.8703,-5.8731,-5.885,-5.8834,-5.8866,-5.8927,-5.898,-5.8994,-5.9006,-5.905,-5.9065,-5.8876,-5.8876,-5.8876,0,-5.8256,-5.8344,-5.8347,-5.8413,-5.8445,-5.8427,-5.8499,-5.8528,-5.8587,-5.8609,-5.8583,-5.8699,-5.8725,-5.8823,-5.8853,-5.8875,-5.8895,-5.8861,-5.8992,-5.9004,-5.9015,-5.9057,-5.9073,-5.888,-5.8879,-5.8879,-5.8879,0,-5.8398,-5.8459,-5.8511,-5.857,-5.8609,-5.8676,-5.869,-5.8728,-5.8725,-5.8739,-5.8822,-5.8853,-5.891,-5.8933,-5.8929,-5.9031,-5.9016,-5.8991,-5.8944,-5.9036,-5.9075,-5.9091,-5.8885,-5.8884,-5.8883,-5.8882,0,0,-5.853,-5.8592,-5.8611,-5.8639,-5.8689,-5.8736,-5.8803,-5.886,-5.8894,-5.8935,-5.8992,-5.907,-5.9048,-5.9079,-5.9079,-5.9125,-5.922,-5.9095,-5.9096,-5.9118,-5.9335,-5.9354,-5.9373,-5.9209,-5.9212,-5.9215,-5.9332,0,-5.864,-5.876,-5.8766,-5.8874,-5.8932,-5.8916,-5.8975,-5.9012,-5.9027,-5.9077,-5.9093,-5.915,-5.9116,-5.9135,-5.918,-5.9199,-5.9263,-5.919,-5.9262,-5.9264,-5.9253,-5.9393,-5.9413,-5.9522,-5.9347,-5.935,-5.9352,0,-5.8784,-5.8832,-5.8947,-5.8991,-5.9015,-5.9068,-5.9122,-5.917,-5.9212,-5.922,-5.9256,-5.925,-5.9318,-5.9269,-5.9364,-5.9314,-5.9344,-5.9358,-5.9362,-5.9369,-5.9314,-5.9404,-5.9557,-5.9574,-5.9376,-5.9374,-5.9372,0,-5.887,-5.8964,-5.9045,-5.9069,-5.9121,-5.9159,-5.9183,-5.9221,-5.9256,-5.9303,-5.9326,-5.9379,-5.9409,-5.945,-5.9459,-5.9422,-5.9554,-5.9505,-5.9562,-5.9562,-5.9591,-5.9589,-5.9751,-5.9609,-5.9609,-5.9609,-5.9608,0,-5.8992,-5.9063,-5.9085,-5.9135,-5.9214,-5.9221,-5.9299,-5.9319,-5.9354,-5.9408,-5.9397,-5.9447,-5.9455,-5.9507,-5.9514,-5.9592,-5.9605,-5.9613,-5.9614,-5.9615,-5.9614,-5.9634,-5.9627,-5.9613,-5.9612,-5.9611,-5.961,0,-5.9102,-5.9119,-5.9207,-5.925,-5.9263,-5.932,-5.9356,-5.9404,-5.9419,-5.9487,-5.9503,-5.9527,-5.9587,-5.96,-5.9671,-5.9676,-5.9769,-5.9762,-5.9756,-5.9756,-5.9813,-5.9807,-5.9994,-6.0019,-5.986,-5.9861,-5.9863,0,-5.9179,-5.9234,-5.9284,-5.932,-5.9346,-5.9404,-5.944,-5.9448,-5.9486,-5.9539,-5.9581,-5.9641,-5.969,-5.9787,-5.981,-5.9865,-5.986,-5.9921,-5.9867,-5.9867,-5.9862,-5.9859,-5.9865,-5.9931,-5.9933,-5.9934,-5.9936,0,-5.9315,-5.9321,-5.9375,-5.9432,-5.9476,-5.9521,-5.9564,-5.9593,-5.9608,-5.9651,-5.9714,-5.9752,-5.9827,-5.9887,-5.9942,-5.9965,-5.9953,-5.9953,-5.9969,-5.997,-5.9965,-5.9969,-5.9785,-5.9948,-5.9947,-5.9946,-5.9945,-5.9945,-5.9411,-5.946,-5.9504,-5.9564,-5.9597,-5.9638,-5.9686,-5.9708,-5.9762,-5.9824,-5.9826,-5.9895,-5.9936,-6.001,-6.0036,-6.009,-6.0071,-6.0094,-6.01,-6.0106,-6.0112,-5.9956,-6.01,-6.01,-6.0099,-6.0099,-6.0099,0,-5.9547,-5.9575,-5.9631,-5.9692,-5.974,-5.9726,-5.9773,-5.9814,-5.9876,-5.9916,-5.9965,-6.0038,-6.0097,-6.0125,-6.0183,-6.0221,-6.0217,-6.0235,-6.0233,-6.0239,-6.0125,-6.0106,-6.0238,-6.0238,-6.0238,-6.0238,-6.0238,-6.0238,-5.9624,-5.9706,-5.9718,-5.9817,-5.9844,-5.9913,-5.9942,-5.9979,-6.0012,-6.0095,-6.0144,-6.0163,-6.0198,-6.0259,-6.0312,-6.0319,-6.0341,-6.0363,-6.0367,-6.026,-6.0246,-6.0233,-6.0215,-6.0367,-6.0368,-6.0476,-6.0477,-6.0478]}]]